Regional Weather Roundup
Issued by NWS

Home | Current Version | Previous Version | Graphics & Text | Print | Product List | Glossary On
Versions: 1 2 3 4 5 6 7 8 9 10 11 12 13 14 15 16 17 18 19 20 21 22 23 24 25 26 27 28 29 30 31 32 33 34 35 36 37 38 39 40 41 42 43 44 45 46 47 48 49 50
097
ASUS44 KLIX 181405
RWRLA
LOUISIANA WEATHER ROUNDUP
NATIONAL WEATHER SERVICE NEW ORLEANS LA
900 AM CDT THU SEP 18 2014

NOTE: "FAIR" INDICATES FEW OR NO CLOUDS BELOW 12,000 FEET WITH NO
      SIGNIFICANT WEATHER AND/OR OBSTRUCTIONS TO VISIBILITY.
      SKY/WX - SKY CONDITION AND SIGNIFICANT WEATHER.
      TMP - AIR TEMPERATURE.    DP   - DEWPOINT TEMPERATURE.
      RH  - RELATIVE HUMIDITY.  PRES - PRESSURE.
      HX  - HEAT INDEX.         WCI  - WIND CHILL INDEX.

*  THESE STATIONS ARE NOT NWS OR FAA STATIONS AND ARE NOT UNDER
   NWS QUALITY CONTROL.

LAZ040-048-061>063-065-066-069-181500-
SOUTHEAST LOUISIANA

CITY           SKY/WX    TMP DP  RH WIND       PRES   REMARKS
N.O. AUDUBON     N/A     85  77  77 MISG        N/A
N.O. INTL ARPT PTSUNNY   82  75  79 NE7       29.94S
N.O. LAKEFRONT MOSUNNY   82  74  76 NE10      29.94S
N.O. DOWNTOWN* FAIR      81  72  74 N3        29.94S
SLIDELL        MOSUNNY   80  75  84 CALM      29.94R
BATON ROUGE    CLOUDY    75  72  90 NE3       29.95R
BOOTHVILLE     MOSUNNY   83  76  79 E6        29.94S
BELLE CHASSE   PTSUNNY   82  75  79 NE6       29.93S
BOGALUSA*      FAIR      77  73  88 CALM      29.96S
GALLIANO*      NOT AVBL
NEW ROADS*     FAIR      74  73  98 CALM      29.95R
GONZALES*      FAIR      77  77 100 NE3       29.94R
HAMMOND*       PTSUNNY   81  72  74 CALM      29.96R
HOUMA*         MOSUNNY  N/A N/A N/A NE7       29.94S FOG
PORT FOURCHON* PTSUNNY   81  73  78 NE5       29.97R

$$

LAZ041-044-053-054-181500-
SOUTHWEST LOUISIANA

CITY           SKY/WX    TMP DP  RH WIND       PRES   REMARKS
LAKE CHARLES   CLOUDY    76  75  97 NE7       29.93R
LAFAYETTE      CLOUDY    77  75  93 CALM      29.94S
PATTERSON      CLOUDY    79  75  89 NE7       29.96S
SALT POINT       N/A     80  77  90 CALM      29.93R
NEW IBERIA     CLOUDY    79  76  90 NE5       29.95R
CHENAULT AIRPK CLOUDY    75  75 100 CALM      29.94R FOG

$$

LAZ027-028-181500-
CENTRAL LOUISIANA

CITY           SKY/WX    TMP DP  RH WIND       PRES   REMARKS
FORT POLK      CLOUDY    74  72  93 CALM      29.94S
ALEXANDRIA INT CLOUDY    74  73  97 CALM      29.93R
ALEXANDRIA     CLOUDY    76  73  91 SW5       29.94R

$$

LAZ001-002-181500-
NORTHWEST LOUISIANA

CITY           SKY/WX    TMP DP  RH WIND       PRES   REMARKS
SHREVEPORT     CLOUDY    75  72  90 S9        29.92R
BARKSDALE AFB  CLOUDY    75  72  88 S8        29.92S
DTN SHREVEPORT CLOUDY    76  72  87 S9        29.92R

$$

LAZ014-016-181500-
NORTHEAST LOUISIANA

CITY           SKY/WX    TMP DP  RH WIND       PRES   REMARKS
MONROE         PTSUNNY   76  74  93 CALM      29.94S
TALLULAH       PTSUNNY   80  73  79 CALM      29.94S

$$




USA.gov is the U.S. government's official web portal to all federal, state and local government web resources and services.